Location: Cañada de la Miga
(34.7595°N, 106.2317°W)
Time: 01:09:55
(UTC+00:00)

S-56A Canister/Altair - All Passes

Search period start: 07 December 2021 00:00
Search period end: 17 December 2021 00:00
Orbit: 633 x 2500 km, 38.9° (Epoch: 06 December)

Date Brightness Start Highest point End Pass type
(mag) Time Alt. Az. Time Alt. Az. Time Alt. Az.
07 Dec - 03:13:44 10° SSW 03:25:07 31° SE 03:33:58 10° E visible
07 Dec - 05:17:52 10° SW 05:30:33 70° SSE 05:38:57 10° ENE visible
07 Dec - 07:25:25 10° W 07:35:49 70° N 07:42:30 10° ENE night (unlit)
07 Dec - 09:32:57 10° WNW 09:40:46 70° N 09:46:04 10° E visible
07 Dec - 11:39:00 10° WNW 11:44:29 41° SW 11:48:49 10° SE visible
08 Dec - 02:40:45 10° SSW 02:51:55 28° SE 03:00:56 10° E visible
08 Dec - 04:44:14 10° SW 04:57:25 66° SSE 05:06:23 10° ENE visible
08 Dec - 06:51:39 10° W 07:02:52 74° NNW 07:10:05 10° ENE night (unlit)
08 Dec - 08:59:30 10° WNW 09:08:03 68° N 09:13:42 10° E night (unlit)
08 Dec - 11:05:52 10° WNW 11:12:03 50° SSW 11:16:39 10° SE visible
09 Dec - 02:07:54 10° S 02:18:41 25° SE 02:27:44 10° E visible
09 Dec - 04:10:40 10° SW 04:24:15 61° SSE 04:33:46 10° ENE visible
09 Dec - 06:17:49 10° WSW 06:29:52 78° NNW 06:37:38 10° ENE visible
09 Dec - 08:25:57 10° WNW 08:35:15 67° N 08:41:18 10° E night (unlit)
09 Dec - 10:32:39 10° WNW 10:39:33 61° SSW 10:44:27 10° SE visible
10 Dec - 01:35:15 10° S 01:45:27 23° SE 01:54:19 10° E visible
10 Dec - 03:37:09 10° SW 03:51:00 57° SSE 04:01:04 10° ENE visible
10 Dec - 05:43:58 10° WSW 05:56:47 82° NNW 06:05:10 10° ENE visible
10 Dec - 07:52:17 10° W 08:02:23 67° N 08:08:54 10° E night (unlit)
10 Dec - 09:59:21 10° WNW 10:07:00 71° SSW 10:12:12 10° ESE visible
10 Dec - 12:06:58 10° WSW 12:09:43 14° SW 12:12:12 10° SSW visible
11 Dec - 01:02:49 10° S 01:12:12 20° SE 01:20:41 10° E visible
11 Dec - 03:03:44 10° SW 03:17:42 53° SSE 03:28:17 10° ENE visible
11 Dec - 05:10:08 10° WSW 05:23:37 86° NNW 05:32:38 10° ENE visible
11 Dec - 07:18:32 10° W 07:29:27 68° N 07:36:28 10° E night (unlit)
11 Dec - 09:25:57 10° WNW 09:34:22 80° SSW 09:39:56 10° ESE night (unlit)
11 Dec - 11:33:11 10° W 11:37:20 19° SW 11:40:48 10° S visible
12 Dec - 00:30:42 10° SSE 00:38:58 17° SE 00:46:41 10° E visible
12 Dec - 02:30:24 10° SSW 02:44:22 49° SE 02:55:23 10° ENE visible
12 Dec - 04:36:19 10° WSW 04:50:23 90° SSE 05:00:03 10° ENE visible
12 Dec - 06:44:42 10° W 06:56:25 69° N 07:04:00 10° E night (unlit)
12 Dec - 08:52:28 10° WNW 09:01:40 87° SSW 09:07:37 10° ESE night (unlit)
12 Dec - 10:59:36 10° W 11:04:55 24° SW 11:09:05 10° S visible
12 Dec - 23:59:02 10° SSE 00:05:45 14° SE 00:12:14 10° ESE daylight
13 Dec - 01:57:11 10° SSW 02:11:00 45° SE 02:22:24 10° ENE visible
13 Dec - 04:02:32 10° WSW 04:17:04 85° SSE 04:27:24 10° ENE visible
13 Dec - 06:10:49 10° W 06:23:20 70° N 06:31:30 10° E visible
13 Dec - 08:18:54 10° WNW 08:28:53 87° NNE 08:35:17 10° ESE night (unlit)
13 Dec - 10:26:05 10° W 10:32:30 31° SW 10:37:12 10° SSE visible
13 Dec - 23:28:19 10° SE 23:32:34 12° SE 23:36:45 10° ESE daylight
14 Dec - 01:24:07 10° SSW 01:37:37 41° SE 01:49:17 10° ENE visible
14 Dec - 03:28:50 10° WSW 03:43:42 81° SSE 03:54:40 10° ENE visible
14 Dec - 05:36:54 10° W 05:50:08 72° N 05:58:57 10° ENE visible
14 Dec - 07:45:13 10° WNW 07:56:01 82° NNE 08:02:54 10° ESE night (unlit)
14 Dec - 09:52:32 10° WNW 10:00:00 38° SW 10:05:14 10° SSE night (unlit)
15 Dec - 00:51:10 10° SSW 01:04:15 37° SE 01:16:02 10° E visible
15 Dec - 02:55:13 10° SW 03:10:16 77° SSE 03:21:52 10° ENE visible
15 Dec - 05:02:59 10° W 05:16:53 74° N 05:26:21 10° ENE visible
15 Dec - 07:11:29 10° WNW 07:23:03 79° NNE 07:30:28 10° E night (unlit)
15 Dec - 09:18:58 10° WNW 09:27:26 47° SW 09:33:11 10° SE night (unlit)
16 Dec - 00:18:23 10° SSW 00:30:53 33° SE 00:42:37 10° E visible
16 Dec - 02:21:41 10° SW 02:36:48 72° SSE 02:48:59 10° ENE visible
16 Dec - 04:29:05 10° W 04:43:31 76° N 04:53:41 10° ENE visible
16 Dec - 06:37:40 10° WNW 06:50:00 76° N 06:57:59 10° E visible
16 Dec - 08:45:21 10° WNW 08:54:49 55° SW 09:01:02 10° SE night (unlit)
16 Dec - 10:56:16 10° WSW 10:57:13 10° SW 10:58:08 10° SW night (unlit)
